Weather History for Wildwood, NJ

Change the Weather History Date:

Sunday, February 17, 2013

  Actual Average Record
Temperature  
Mean Temperature 30 °F -  
Max Temperature 33 °F 42 °F 60 °F (2006)
Min Temperature 26 °F 30 °F 17 °F (2004)
Degree Days  
Heating Degree Days 36    
Moisture  
Dew Point 11 °F    
Average Humidity 47    
Maximum Humidity 60    
Minimum Humidity 38    
Precipitation  
Precipitation 0.00 in - - ()
Sea Level Pressure  
Sea Level Pressure 29.86 in    
Wind  
Wind Speed 15 mph (NW)    
Max Wind Speed 24 mph    
Max Gust Speed 39 mph    
Visibility 10 miles    
Events      
Averages and records for this station are not official NWS values.
T = Trace of Precipitation, MM = Missing Value Source: NWS Daily Summary

Daily Weather History Graph

Daily Weather History Graph

Search for Another Location

Airport:

Trip Planner

Search our weather history database for the weather conditions in past years. The results will help you decide how hot, cold, wet, or windy it might be!

Date:

Astronomy

Feb. 17, 2013 Rise Set
Actual Time 6:48 AM EST 5:39 PM EST
Civil Twilight 6:21 AM EST 6:06 PM EST
Nautical Twilight 5:49 AM EST 6:37 PM EST
Astronomical Twilight 5:18 AM EST 7:08 PM EST
Moon 10:43 AM EST (2/17) 12:29 AM EST (2/17)
Length of Visible Light 11h 45m
Length of Day
10h 51m
Waxing Crescent, 49% of the Moon is Illuminated
Feb 17
Waxing Crescent
Feb 17
First Quarter
Feb 25
Full
Mar 4
Last Quarter
Mar 11
New

Hourly Weather History & Observations

Time (EST) Temp. Windchill Dew Point Humidity Pressure Visibility Wind Dir Wind Speed Gust Speed Precip Events Conditions
12:15 AM 32.0 °F 22.1 °F 19.4 °F 60% 29.74 in 10.0 mi North 13.8 mph - N/A   Overcast
12:35 AM 32.0 °F 22.1 °F 19.4 °F 60% 29.72 in 10.0 mi NNW 13.8 mph 19.6 mph N/A   Overcast
12:55 AM 32.0 °F 23.6 °F 19.4 °F 60% 29.73 in 10.0 mi NNW 10.4 mph - N/A   Overcast
1:15 AM 30.2 °F 19.3 °F 17.6 °F 60% 29.72 in 10.0 mi NNW 15.0 mph 21.9 mph N/A   Overcast
1:35 AM 30.2 °F 20.2 °F 17.6 °F 60% 29.72 in 10.0 mi NNW 12.7 mph 23.0 mph N/A   Overcast
1:55 AM 30.2 °F 20.2 °F 15.8 °F 55% 29.72 in 10.0 mi NNW 12.7 mph 21.9 mph N/A   Overcast
2:15 AM 30.2 °F 20.8 °F 14.0 °F 51% 29.72 in 10.0 mi NNW 11.5 mph 19.6 mph N/A   Overcast
2:35 AM 30.2 °F 19.8 °F 14.0 °F 51% 29.73 in 10.0 mi NNW 13.8 mph 20.7 mph N/A   Overcast
2:55 AM 30.2 °F 20.2 °F 14.0 °F 51% 29.72 in 10.0 mi NNW 12.7 mph 20.7 mph N/A   Overcast
3:15 AM 30.2 °F 21.3 °F 12.2 °F 47% 29.72 in 10.0 mi NNW 10.4 mph 23.0 mph N/A   Overcast
3:35 AM 30.2 °F 19.3 °F 12.2 °F 47% 29.72 in 10.0 mi NW 15.0 mph 23.0 mph N/A   Overcast
3:55 AM 30.2 °F 19.8 °F 12.2 °F 47% 29.71 in 10.0 mi NW 13.8 mph 25.3 mph N/A   Scattered Clouds
4:15 AM 30.2 °F 18.9 °F 12.2 °F 47% 29.72 in 10.0 mi NW 16.1 mph 25.3 mph N/A   Clear
4:35 AM 30.2 °F 18.5 °F 10.4 °F 44% 29.73 in 10.0 mi NNW 17.3 mph 25.3 mph N/A   Clear
4:55 AM 30.2 °F 20.8 °F 10.4 °F 44% 29.73 in 10.0 mi NNW 11.5 mph 23.0 mph N/A   Clear
5:15 AM 30.2 °F 20.8 °F 10.4 °F 44% 29.74 in 10.0 mi NNW 11.5 mph 26.5 mph N/A   Clear
5:35 AM 30.2 °F 19.3 °F 8.6 °F 40% 29.75 in 10.0 mi NW 15.0 mph 26.5 mph N/A   Clear
5:55 AM 28.4 °F 16.6 °F 8.6 °F 43% 29.75 in 10.0 mi NNW 16.1 mph 27.6 mph N/A   Clear
6:15 AM 28.4 °F 16.6 °F 8.6 °F 43% 29.76 in 10.0 mi NW 16.1 mph 26.5 mph N/A   Clear
6:35 AM 28.4 °F 17.5 °F 8.6 °F 43% 29.76 in 10.0 mi NNW 13.8 mph 24.2 mph N/A   Clear
6:55 AM 28.4 °F 18.0 °F 8.6 °F 43% 29.77 in 10.0 mi NW 12.7 mph 24.2 mph N/A   Clear
7:15 AM 28.4 °F 17.5 °F 10.4 °F 47% 29.78 in 10.0 mi NW 13.8 mph 20.7 mph N/A   Clear
7:35 AM 28.4 °F 18.0 °F 10.4 °F 47% 29.78 in 10.0 mi NW 12.7 mph 27.6 mph N/A   Clear
7:55 AM 28.4 °F 17.0 °F 10.4 °F 47% 29.79 in 10.0 mi WNW 15.0 mph 24.2 mph N/A   Clear
8:15 AM 28.4 °F 18.0 °F 12.2 °F 51% 29.79 in 10.0 mi NW 12.7 mph 23.0 mph N/A   Clear
8:35 AM 28.4 °F 16.2 °F 10.4 °F 47% 29.80 in 10.0 mi NW 17.3 mph 24.2 mph N/A   Clear
8:55 AM 28.4 °F 16.6 °F 12.2 °F 51% 29.81 in 10.0 mi NW 16.1 mph 25.3 mph N/A   Clear
9:15 AM 30.2 °F 19.3 °F 10.4 °F 44% 29.81 in 10.0 mi NW 15.0 mph 27.6 mph N/A   Clear
9:35 AM 30.2 °F 19.3 °F 12.2 °F 47% 29.81 in 10.0 mi WNW 15.0 mph 25.3 mph N/A   Clear
9:55 AM 30.2 °F 19.3 °F 12.2 °F 47% 29.82 in 10.0 mi WNW 15.0 mph 28.8 mph N/A   Clear
10:15 AM 30.2 °F 19.3 °F 12.2 °F 47% 29.83 in 10.0 mi WNW 15.0 mph 27.6 mph N/A   Partly Cloudy
10:35 AM 30.2 °F 19.8 °F 12.2 °F 47% 29.83 in 10.0 mi WNW 13.8 mph 34.5 mph N/A   Scattered Clouds
10:55 AM 30.2 °F 18.9 °F 12.2 °F 47% 29.83 in 10.0 mi WNW 16.1 mph 27.6 mph N/A   Scattered Clouds
11:15 AM 30.2 °F 20.2 °F 12.2 °F 47% 29.84 in 10.0 mi WNW 12.7 mph 24.2 mph N/A   Scattered Clouds
11:35 AM 30.2 °F 18.9 °F 12.2 °F 47% 29.84 in 10.0 mi WNW 16.1 mph 26.5 mph N/A   Scattered Clouds
11:55 AM 30.2 °F 18.1 °F 12.2 °F 47% 29.84 in 10.0 mi WNW 18.4 mph 27.6 mph N/A   Partly Cloudy
12:15 PM 32.0 °F 22.1 °F 12.2 °F 44% 29.84 in 10.0 mi WNW 13.8 mph 25.3 mph N/A   Partly Cloudy
12:35 PM 30.2 °F 17.4 °F 10.4 °F 44% 29.84 in 10.0 mi WNW 20.7 mph 27.6 mph N/A   Mostly Cloudy
12:55 PM 30.2 °F 18.9 °F 10.4 °F 44% 29.84 in 10.0 mi NW 16.1 mph 32.2 mph N/A   Mostly Cloudy
1:15 PM 30.2 °F 17.8 °F 10.4 °F 44% 29.84 in 10.0 mi WNW 19.6 mph 25.3 mph N/A   Mostly Cloudy
1:35 PM 30.2 °F 16.8 °F 10.4 °F 44% 29.84 in 10.0 mi NW 23.0 mph 31.1 mph N/A   Mostly Cloudy
1:55 PM 32.0 °F 22.5 °F 12.2 °F 44% 29.85 in 10.0 mi WNW 12.7 mph 26.5 mph N/A   Mostly Cloudy
2:15 PM 30.2 °F 18.9 °F 10.4 °F 44% 29.85 in 10.0 mi WNW 16.1 mph 27.6 mph N/A   Scattered Clouds
2:35 PM 33.8 °F 23.5 °F 10.4 °F 38% 29.86 in 10.0 mi WNW 16.1 mph 28.8 mph N/A   Mostly Cloudy
2:55 PM 30.2 °F 18.5 °F 10.4 °F 44% 29.87 in 10.0 mi WNW 17.3 mph 28.8 mph N/A   Scattered Clouds
3:15 PM 30.2 °F 18.9 °F 10.4 °F 44% 29.87 in 10.0 mi WNW 16.1 mph 25.3 mph N/A   Scattered Clouds
3:35 PM 30.2 °F 18.9 °F 10.4 °F 44% 29.88 in 10.0 mi NW 16.1 mph 25.3 mph N/A   Partly Cloudy
3:55 PM 28.4 °F 16.6 °F 14.0 °F 55% 29.89 in 10.0 mi WNW 16.1 mph 29.9 mph N/A   Mostly Cloudy
4:15 PM 30.2 °F 18.5 °F 12.2 °F 47% 29.89 in 10.0 mi WNW 17.3 mph 28.8 mph N/A   Scattered Clouds
4:35 PM 30.2 °F 17.8 °F 10.4 °F 44% 29.90 in 10.0 mi WNW 19.6 mph 31.1 mph N/A   Clear
4:55 PM 30.2 °F 19.8 °F 15.8 °F 55% 29.91 in 10.0 mi NW 13.8 mph 24.2 mph N/A   Mostly Cloudy
5:15 PM 30.2 °F 17.8 °F 10.4 °F 44% 29.92 in 10.0 mi West 19.6 mph 31.1 mph N/A   Scattered Clouds
5:35 PM 30.2 °F 17.1 °F 10.4 °F 44% 29.93 in 10.0 mi WNW 21.9 mph 28.8 mph N/A   Scattered Clouds
5:55 PM 30.2 °F 18.9 °F 10.4 °F 44% 29.94 in 10.0 mi WNW 16.1 mph 29.9 mph N/A   Mostly Cloudy
6:15 PM 30.2 °F 17.4 °F 8.6 °F 40% 29.95 in 10.0 mi WNW 20.7 mph 27.6 mph N/A   Scattered Clouds
6:35 PM 28.4 °F 16.6 °F 14.0 °F 55% 29.96 in 10.0 mi West 16.1 mph 26.5 mph N/A   Scattered Clouds
6:55 PM 28.4 °F 14.4 °F 8.6 °F 43% 29.97 in 10.0 mi West 23.0 mph 31.1 mph N/A   Mostly Cloudy
7:15 PM 28.4 °F 15.1 °F 8.6 °F 43% 29.98 in 10.0 mi WNW 20.7 mph 33.4 mph N/A   Scattered Clouds
7:35 PM 28.4 °F 15.4 °F 10.4 °F 47% 29.99 in 10.0 mi WNW 19.6 mph 35.7 mph N/A   Scattered Clouds
7:55 PM 28.4 °F 15.1 °F 12.2 °F 51% 30.00 in 10.0 mi West 20.7 mph 31.1 mph N/A   Mostly Cloudy
8:15 PM 28.4 °F 14.7 °F 10.4 °F 47% 30.01 in 10.0 mi West 21.9 mph 28.8 mph N/A   Mostly Cloudy
8:35 PM 28.4 °F 15.8 °F 10.4 °F 47% 30.02 in 10.0 mi WNW 18.4 mph 29.9 mph N/A   Overcast
8:55 PM 28.4 °F 17.5 °F 8.6 °F 43% 30.03 in 10.0 mi WNW 13.8 mph 32.2 mph N/A   Overcast
9:15 PM 28.4 °F 15.4 °F 8.6 °F 43% 30.04 in 10.0 mi WNW 19.6 mph 35.7 mph N/A   Overcast
9:35 PM 28.4 °F 15.1 °F 8.6 °F 43% 30.05 in 10.0 mi WNW 20.7 mph 34.5 mph N/A   Overcast
9:55 PM 28.4 °F 15.8 °F 6.8 °F 40% 30.06 in 10.0 mi WNW 18.4 mph 31.1 mph N/A   Overcast
10:15 PM 26.6 °F 12.7 °F 8.6 °F 47% 30.07 in 10.0 mi WNW 20.7 mph 32.2 mph N/A   Overcast
10:35 PM 26.6 °F 12.4 °F 6.8 °F 43% 30.07 in 10.0 mi WNW 21.9 mph 34.5 mph N/A   Overcast
10:55 PM 26.6 °F 11.7 °F 6.8 °F 43% 30.07 in 10.0 mi WNW 24.2 mph 34.5 mph N/A   Mostly Cloudy
11:15 PM 26.6 °F 13.4 °F 6.8 °F 43% 30.08 in 10.0 mi WNW 18.4 mph 39.1 mph N/A   Mostly Cloudy
11:35 PM 26.6 °F 13.1 °F 5.0 °F 40% 30.09 in 10.0 mi WNW 19.6 mph 33.4 mph N/A   Overcast
11:55 PM 26.6 °F 12.4 °F 5.0 °F 40% 30.08 in 10.0 mi WNW 21.9 mph 32.2 mph N/A   Overcast